Location: Brunembert
(50.7122°N, 1.8935°E)
Time: 10:16:48
(UTC+00:00)

Cosmos 1570 Rocket - Pass Details

Date: 22 April 2021
Orbit: 763 x 788 km, 74.1° (Epoch: 05 May)

Event Time Altitude Azimuth Distance (km) Brightness Sun altitude
Rises 21:44:12 0° 337° (NNW) 3,272 8.8 -21.0°
Reaches altitude 10° 21:46:38 10° 340° (NNW) 2,337 7.6 -21.2°
Maximum altitude 21:51:55 66° 63° (ENE) 843 4.1 -21.7°
Enters shadow 21:53:15 48° 123° (ESE) 1,006 4.2 -21.8°
